Weather History for Tyler, TX

Change the Weather History Date:

Thursday, December 30, 2010

  Actual Average Record
Temperature  
Mean Temperature 66 °F 47 °F  
Max Temperature 74 °F 56 °F 83 °F (1951)
Min Temperature 58 °F 37 °F 2 °F (1983)
Degree Days  
Heating Degree Days 0 18  
Month to date heating degree days 476 508  
Since 1 July heating degree days 779 882  
Cooling Degree Days 1 0  
Month to date cooling degree days 4 0  
Year to date cooling degree days 3035 2411  
Growing Degree Days 15 (Base 50)    
Moisture  
Dew Point 60 °F    
Average Humidity 81    
Maximum Humidity 97    
Minimum Humidity 64    
Precipitation  
Precipitation 0.00 in 0.14 in 2.67 in (1952)
Month to date precipitation 1.07 4.11  
Year to date precipitation 31.04 45.66  
Snow  
Snow 0.00 in - - ()
Month to date snowfall 0.0  
Since 1 July snowfall 0.0  
Snow Depth 0.00 in    
Sea Level Pressure  
Sea Level Pressure 29.63 in    
Wind  
Wind Speed 15 mph (South)    
Max Wind Speed 25 mph    
Max Gust Speed 32 mph    
Visibility 9 miles    
Events      
T = Trace of Precipitation, MM = Missing Value Source: NWS Daily Summary

Daily Weather History Graph

Daily Weather History Graph

Search for Another Location

Airport:

Trip Planner

Search our weather history database for the weather conditions in past years. The results will help you decide how hot, cold, wet, or windy it might be!

Date:

Astronomy

Dec. 30, 2010 Rise Set
Actual Time 7:22 AM CST 5:25 PM CST
Civil Twilight 6:55 AM CST 5:53 PM CST
Nautical Twilight 6:24 AM CST 6:23 PM CST
Astronomical Twilight 5:54 AM CST 6:53 PM CST
Moon 2:47 AM CST (12/30) 1:29 PM CST (12/30)
Length of Visible Light 10h 57m
Length of Day
10h 03m
Waning Crescent, 23% of the Moon is Illuminated
Dec 30
Waning Crescent
Jan 4
New
Jan 12
First Quarter
Jan 19
Full
Jan 26
Last Quarter

Hourly Weather History & Observations

Time (CST) Temp. Dew Point Humidity Pressure Visibility Wind Dir Wind Speed Gust Speed Precip Events Conditions
12:38 AM 57.2 °F 55.4 °F 94% 29.68 in 10.0 mi SSE 8.1 mph - N/A   Overcast
12:53 AM 59.0 °F 55.9 °F 90% 29.67 in 10.0 mi South 10.4 mph - N/A   Overcast
1:53 AM 59.0 °F 57.0 °F 93% 29.66 in 7.0 mi South 15.0 mph 20.7 mph N/A   Overcast
2:53 AM 59.0 °F 57.0 °F 93% 29.66 in 5.0 mi South 11.5 mph - N/A   Overcast
3:53 AM 59.0 °F 57.9 °F 96% 29.66 in 6.0 mi South 13.8 mph 19.6 mph N/A   Overcast
4:53 AM 60.1 °F 57.9 °F 93% 29.65 in 7.0 mi South 10.4 mph - N/A   Overcast
5:53 AM 61.0 °F 59.0 °F 93% 29.65 in 7.0 mi South 13.8 mph 23.0 mph N/A   Overcast
6:53 AM 62.1 °F 59.0 °F 90% 29.65 in 8.0 mi South 12.7 mph 21.9 mph N/A   Overcast
7:53 AM 63.0 °F 59.0 °F 87% 29.67 in 8.0 mi South 16.1 mph 24.2 mph N/A   Overcast
8:00 AM 62.6 °F 59.0 °F 88% 29.68 in 8.0 mi South 13.8 mph 24.2 mph N/A   Overcast
8:53 AM 64.0 °F 59.0 °F 84% 29.68 in 9.0 mi South 15.0 mph 25.3 mph N/A   Overcast
9:53 AM 66.0 °F 60.1 °F 81% 29.70 in 10.0 mi South 20.7 mph 26.5 mph N/A   Overcast
10:51 AM 68.0 °F 60.8 °F 78% 29.70 in 10.0 mi South 21.9 mph 31.1 mph N/A   Overcast
10:53 AM 68.0 °F 60.1 °F 76% 29.68 in 10.0 mi South 24.2 mph 32.2 mph N/A   Overcast
11:53 AM 70.0 °F 60.1 °F 71% 29.66 in 10.0 mi SSW 16.1 mph 21.9 mph N/A   Overcast
12:53 PM 73.0 °F 60.1 °F 64% 29.63 in 10.0 mi South 24.2 mph 29.9 mph N/A   Mostly Cloudy
1:53 PM 72.0 °F 59.0 °F 64% 29.61 in 10.0 mi South 18.4 mph 24.2 mph N/A   Overcast
2:53 PM 72.0 °F 59.0 °F 64% 29.60 in 10.0 mi South 11.5 mph - N/A   Overcast
3:53 PM 72.0 °F 59.0 °F 64% 29.58 in 10.0 mi SSE 10.4 mph - N/A   Overcast
4:53 PM 71.1 °F 60.1 °F 68% 29.57 in 10.0 mi SSE 13.8 mph - N/A   Partly Cloudy
5:53 PM 69.1 °F 61.0 °F 75% 29.56 in 10.0 mi SSE 15.0 mph 21.9 mph N/A   Partly Cloudy
6:53 PM 69.1 °F 61.0 °F 75% 29.57 in 10.0 mi SSE 15.0 mph - N/A   Mostly Cloudy
7:16 PM 69.8 °F 60.8 °F 73% 29.59 in 10.0 mi SSE 11.5 mph - N/A   Mostly Cloudy
7:32 PM 69.8 °F 62.6 °F 78% 29.60 in 10.0 mi South 12.7 mph - N/A   Overcast
7:53 PM 69.8 °F 62.6 °F 78% 29.60 in 10.0 mi South 13.8 mph 20.7 mph N/A   Overcast
8:20 PM 69.8 °F 62.6 °F 78% 29.61 in 10.0 mi South 13.8 mph - N/A   Mostly Cloudy
8:53 PM 68.0 °F 62.1 °F 81% 29.60 in 10.0 mi South 11.5 mph - N/A   Overcast
9:02 PM 68.0 °F 62.6 °F 83% 29.62 in 10.0 mi South 11.5 mph - N/A   Overcast
9:49 PM 68.0 °F 62.6 °F 83% 29.63 in 10.0 mi South 12.7 mph - N/A   Mostly Cloudy
9:53 PM 68.0 °F 62.1 °F 81% 29.62 in 10.0 mi South 11.5 mph - N/A   Mostly Cloudy
10:53 PM 69.1 °F 62.1 °F 78% 29.61 in 10.0 mi South 17.3 mph 24.2 mph N/A   Overcast
11:40 PM 68.0 °F 62.6 °F 83% 29.61 in 10.0 mi South 18.4 mph 28.8 mph N/A   Scattered Clouds
11:53 PM 68.0 °F 62.1 °F 81% 29.59 in 10.0 mi SSE 17.3 mph 25.3 mph N/A   Partly Cloudy